Mc Minnville Municipal Airport
KMMV : now visible

Airfield :











YOU CAN JOIN US ON...

 
LOGIN :

Register | Disclaimer

   EN    FR    IT 

 









Legend :    VFR   Marginal VFR   IFR   Intensive IFR   Very Intensive IFR
Visi :
Ceiling :
>= 8 km
>= 3000ft
5 to 8 km
1000 to 3000 ft
1500m to 5 km
500 to 1000 ft
800 to 1500m
200 to 500 ft
< 800m
< 200 ft
Symbols :   Thunderstorms  Fog  Heavy snow  Heavy precipitations  Wind > 20 kt






- Airport Elevation : 163 ft


KMMV - Mc Minnville Municipal

CURRENT METAR :
  • 190753Z AUTO 18008KT 10SM OVC080 14/12 A2985 RMK AO2 SLP107 T01390117 402000139

EXPIRED METARs :
  • 190653Z AUTO 19012G18KT 10SM BKN080 14/12 A2984 RMK AO2 SLP103 P0001 T01440117
  • 190553Z AUTO 15008KT 10SM FEW042 SCT049 BKN070 14/13 A2982 RMK AO2 RAE0454B18E28 SLP097 P0001 60006 T01390128 10167 20139 51004

TAF N/A
KZSE FIR / North America



MET'MAP, your aeronautical weather chart ! - Copyright ORBIFLY December 2007 - Disclaimer

ORBIFLY MET'MAP TEAM :

Programming & Development : Alexandra Zaïnal
Concept & original design : Baudouin d'Aumeries
Assistance for programming : Marc-Olivier Méhu
Technical & hardware support : Manuel Goepfert

Contact : metmap@orbifly.com




SOURCES & CREDITS :

   NOAA       Earth
Advisory